Find Starlink 5869

NORAD ID: 57061 Int'l Des: 2023-088 Owner: SPXS Country: US Constellation: starlink operational
LEOCIRCULAR

Current View

Loading 3D Globe...

About Starlink 5869

Starlink 5869 (NORAD 57061) is a starlink constellation satellite (v1.5) launched Jun 22, 2023 by SPXS of US. It operates in LEO, CIRCULAR orbit with a mass of 305.00 kg.

Upcoming Passes

Passes for default location (London). Set your location on the main map for personalized predictions.

Altitude History

Loading altitude history...

Two-Line Element Set

1 57061U 23088P 26235.74853234 -.00158005 00000-0 -59307-2 0 9991
2 57061 43.0012 250.4519 0001587 251.6824 108.3855 15.27161929174865
Epoch: Aug 23, 2026 • Age: 14 hours

Current Status

Altitude 496.5 km
Apogee / Perigee N/A
Velocity 7.62 km/s
Sub-Earth Point -41.65°S, 51.58°E
Launch Date Jun 22, 2023
Age 3.1 years
Type internet

Technical Details

Classification Payload
Mass 305.00 kg
Dry Mass 290.00 kg
Total Mass 305.00 kg
Length 0.20 m
Diameter 2.80 m
Span 9.00 m
Shape Box + pan
Manufacturer SPXS
Bus Type Starlink
Phase Status In Orbit
Owner/State SPXS/US

Most Searched